User: anonymous   Login
Location: Corralito
(10.2667°N, 66.9500°W)
Time: 14:56:00
(UTC+00:00)
Language:

SL-4 R/B - Orbit

View from above orbital plane
View from above orbital plane
View from above satellite
View from above satellite

Ground track
Ground track

The orbit data is extracted from the following two-line orbital elements,

1 39679U 14021B   23272.24155321  .00007030  00000-0  29936-3 0  9993
2 39679  51.6101 284.4708 0149357 154.4739 206.3707 15.14567082520321
Epoch (UTC): 29 September 2023 05:47:50
Eccentricity: 0.0149357
inclination: 51.6101°
perigee height: 419 km
apogee height: 625 km
right ascension of ascending node: 284.4708°
argument of perigee: 154.4739°
revolutions per day: 15.14567082
mean anomaly at epoch: 206.3707°
orbit number at epoch: 52032

The dashed part of the orbit path shows where the satellite is in the earth's shadow,  

DLR